EZY63ZY EGBB-LEBL

Flight info

Callsign EZY63ZY
Flight time 1h 44m
Altitude 39000
Route ADMEX Y321 CPT UN859 SOPIL DCT BALAN DCT EVPOK DCT NARAK DCT GAI DCT LOMRA DCT ROCAN DCT PUMAL
Aircraft A20N/M-SDE2E3FGHIJ1RWXYZ/LB1

Departure

Time 2026-05-06 15:20
Airport Birmingham Airport (EGBB)

Arrival

Time 2026-05-06 17:05
Airport Josep Tarradellas Barcelona-El Prat Airport (LEBL)
Time Latitude Longitude Altitude Speed Heading
2026-05-06 14:34 52.45311 -1.73710 323 ft 0 kts 146°
2026-05-06 15:11 52.45312 -1.73711 320 ft 2 kts 146°
2026-05-06 15:11 52.45333 -1.73735 320 ft 4 kts 144°
2026-05-06 15:11 52.45356 -1.73760 319 ft 4 kts 147°
2026-05-06 15:11 52.45379 -1.73781 320 ft 4 kts 169°
2026-05-06 15:12 52.45396 -1.73778 320 ft 1 kts 235°
2026-05-06 15:12 52.45398 -1.73773 321 ft 0 kts 235°
2026-05-06 15:15 52.45390 -1.73792 320 ft 6 kts 235°
2026-05-06 15:16 52.45356 -1.73874 322 ft 11 kts 236°
2026-05-06 15:16 52.45313 -1.73985 321 ft 11 kts 247°
2026-05-06 15:16 52.45329 -1.74107 322 ft 12 kts 293°
2026-05-06 15:16 52.45374 -1.74244 321 ft 15 kts 297°
2026-05-06 15:17 52.45425 -1.74409 322 ft 17 kts 296°
2026-05-06 15:17 52.45475 -1.74565 321 ft 13 kts 307°
2026-05-06 15:17 52.45559 -1.74667 321 ft 16 kts 325°
2026-05-06 15:17 52.45665 -1.74787 314 ft 22 kts 326°
2026-05-06 15:18 52.45801 -1.74936 308 ft 20 kts 325°
2026-05-06 15:18 52.45928 -1.75077 305 ft 23 kts 326°
2026-05-06 15:18 52.46041 -1.75202 305 ft 19 kts 326°
2026-05-06 15:18 52.46155 -1.75328 303 ft 21 kts 325°
2026-05-06 15:19 52.46200 -1.75463 305 ft 13 kts 242°
2026-05-06 15:19 52.46166 -1.75582 309 ft 10 kts 238°
2026-05-06 15:19 52.46125 -1.75620 309 ft 5 kts 161°
2026-05-06 15:19 52.46045 -1.75530 309 ft 35 kts 144°
2026-05-06 15:20 52.45660 -1.75100 322 ft 98 kts 146°
2026-05-06 15:20 52.44897 -1.74261 357 ft 158 kts 144°
2026-05-06 15:20 52.43934 -1.73248 950 ft 166 kts 146°
2026-05-06 15:20 52.42920 -1.72235 1742 ft 174 kts 146°
2026-05-06 15:21 52.41865 -1.71168 2467 ft 183 kts 144°
2026-05-06 15:21 52.40680 -1.70118 2941 ft 204 kts 157°
2026-05-06 15:21 52.39266 -1.69450 3524 ft 213 kts 163°
2026-05-06 15:21 52.37795 -1.68670 4118 ft 226 kts 153°
2026-05-06 15:22 52.36378 -1.67493 4935 ft 230 kts 151°
2026-05-06 15:22 52.34942 -1.66336 5836 ft 232 kts 156°
2026-05-06 15:22 52.33410 -1.65319 6420 ft 249 kts 157°
2026-05-06 15:22 52.31724 -1.64206 6871 ft 271 kts 157°
2026-05-06 15:23 52.29917 -1.63016 7492 ft 285 kts 158°
2026-05-06 15:23 52.28070 -1.61802 8381 ft 289 kts 158°
2026-05-06 15:23 52.26186 -1.60563 9249 ft 294 kts 158°
2026-05-06 15:23 52.24247 -1.59346 10131 ft 299 kts 163°
2026-05-06 15:24 52.22200 -1.58315 10642 ft 317 kts 163°
2026-05-06 15:24 52.20019 -1.57222 10938 ft 340 kts 163°
2026-05-06 15:24 52.17713 -1.56061 11504 ft 350 kts 163°
2026-05-06 15:24 52.15376 -1.54881 12324 ft 354 kts 163°
2026-05-06 15:25 52.13013 -1.53689 13135 ft 358 kts 163°
2026-05-06 15:25 52.10717 -1.52530 13885 ft 362 kts 163°
2026-05-06 15:25 52.08237 -1.51280 14643 ft 365 kts 164°
2026-05-06 15:25 52.05869 -1.50089 15349 ft 368 kts 164°
2026-05-06 15:26 52.03413 -1.48855 16068 ft 371 kts 164°
2026-05-06 15:26 52.00931 -1.47610 16743 ft 375 kts 164°
2026-05-06 15:26 51.98387 -1.46336 17445 ft 378 kts 164°
2026-05-06 15:26 51.95863 -1.45073 18147 ft 382 kts 164°
2026-05-06 15:27 51.94155 -1.44218 18561 ft 384 kts 164°
2026-05-06 15:27 51.91578 -1.42930 19168 ft 387 kts 164°
2026-05-06 15:27 51.89003 -1.41645 19785 ft 389 kts 165°
2026-05-06 15:27 51.86282 -1.40290 20400 ft 393 kts 165°
2026-05-06 15:28 51.83747 -1.39029 20972 ft 395 kts 165°
2026-05-06 15:28 51.81110 -1.37719 21553 ft 399 kts 165°
2026-05-06 15:28 51.78450 -1.36398 22127 ft 402 kts 165°
2026-05-06 15:28 51.75767 -1.35068 22696 ft 405 kts 165°
2026-05-06 15:29 51.73037 -1.33717 23267 ft 408 kts 165°
2026-05-06 15:29 51.70272 -1.32349 23778 ft 411 kts 165°
2026-05-06 15:29 51.67557 -1.31008 24268 ft 413 kts 165°
2026-05-06 15:29 51.64810 -1.29653 24734 ft 416 kts 165°
2026-05-06 15:30 51.62060 -1.28299 25179 ft 418 kts 165°
2026-05-06 15:30 51.59236 -1.26910 25641 ft 421 kts 165°
2026-05-06 15:30 51.56426 -1.25530 26067 ft 423 kts 165°
2026-05-06 15:30 51.53598 -1.24143 26485 ft 426 kts 165°
2026-05-06 15:31 51.50755 -1.22750 26897 ft 429 kts 165°
2026-05-06 15:31 51.47942 -1.21105 27300 ft 433 kts 158°
2026-05-06 15:31 51.45232 -1.19107 27685 ft 436 kts 157°
2026-05-06 15:32 51.39692 -1.15000 28438 ft 441 kts 157°
2026-05-06 15:32 51.36896 -1.12939 28814 ft 443 kts 157°
2026-05-06 15:32 51.34091 -1.10877 29150 ft 445 kts 157°
2026-05-06 15:32 51.31318 -1.08844 29506 ft 447 kts 157°
2026-05-06 15:33 51.28442 -1.06739 29840 ft 450 kts 157°
2026-05-06 15:33 51.25585 -1.04650 30157 ft 452 kts 157°
2026-05-06 15:33 51.22734 -1.02569 30448 ft 454 kts 157°
2026-05-06 15:33 51.19845 -1.00464 30740 ft 456 kts 157°
2026-05-06 15:34 51.16948 -0.98357 31023 ft 458 kts 157°
2026-05-06 15:34 51.14036 -0.96242 31381 ft 459 kts 157°
2026-05-06 15:34 51.11092 -0.94106 31762 ft 458 kts 157°
2026-05-06 15:34 51.08235 -0.92035 32147 ft 457 kts 157°
2026-05-06 15:35 51.05307 -0.89916 32527 ft 456 kts 157°
2026-05-06 15:35 51.02413 -0.87826 32903 ft 455 kts 157°
2026-05-06 15:35 50.99534 -0.85748 33266 ft 455 kts 157°
2026-05-06 15:35 50.96510 -0.83570 33631 ft 454 kts 157°
2026-05-06 15:36 50.93748 -0.81582 33948 ft 454 kts 157°
2026-05-06 15:36 50.90872 -0.79516 34223 ft 453 kts 157°
2026-05-06 15:36 50.87994 -0.77451 34451 ft 454 kts 157°
2026-05-06 15:36 50.85191 -0.75286 34682 ft 455 kts 152°
2026-05-06 15:37 50.82476 -0.72621 34916 ft 456 kts 148°
2026-05-06 15:37 50.79806 -0.69878 35150 ft 456 kts 148°
2026-05-06 15:37 50.77151 -0.67160 35377 ft 456 kts 148°
2026-05-06 15:37 50.74481 -0.64438 35612 ft 456 kts 148°
2026-05-06 15:38 50.71825 -0.61738 35819 ft 456 kts 148°
2026-05-06 15:38 50.69151 -0.59028 36032 ft 456 kts 148°
2026-05-06 15:38 50.66484 -0.56328 36228 ft 456 kts 148°
2026-05-06 15:38 50.63821 -0.53636 36433 ft 456 kts 148°
2026-05-06 15:39 50.61144 -0.50935 36623 ft 456 kts 148°
2026-05-06 15:39 50.58474 -0.48243 36811 ft 456 kts 148°
2026-05-06 15:39 50.55796 -0.45547 37008 ft 456 kts 148°
2026-05-06 15:39 50.53132 -0.42869 37183 ft 456 kts 149°
2026-05-06 15:40 50.50456 -0.40183 37363 ft 456 kts 149°
2026-05-06 15:40 50.47787 -0.37506 37534 ft 456 kts 149°
2026-05-06 15:40 50.45124 -0.34840 37703 ft 455 kts 149°
2026-05-06 15:40 50.42447 -0.32164 37863 ft 455 kts 149°
2026-05-06 15:41 50.39771 -0.29492 38010 ft 456 kts 149°
2026-05-06 15:41 50.37130 -0.26858 38167 ft 455 kts 149°
2026-05-06 15:41 50.34457 -0.24197 38309 ft 455 kts 149°
2026-05-06 15:41 50.31752 -0.21506 38455 ft 455 kts 149°
2026-05-06 15:42 50.29076 -0.18849 38599 ft 455 kts 149°
2026-05-06 15:42 50.26403 -0.16198 38696 ft 455 kts 149°
2026-05-06 15:42 50.21057 -0.10906 38899 ft 455 kts 149°
2026-05-06 15:43 50.15707 -0.05625 38971 ft 455 kts 149°
2026-05-06 15:43 50.10205 -0.00958 38973 ft 453 kts 158°
2026-05-06 15:44 50.04250 0.02333 38972 ft 451 kts 167°
2026-05-06 15:44 49.98155 0.04687 38971 ft 451 kts 167°
2026-05-06 15:45 49.92069 0.07061 38967 ft 451 kts 167°
2026-05-06 15:45 49.85973 0.09450 38978 ft 451 kts 167°
2026-05-06 15:46 49.79885 0.11831 38977 ft 452 kts 167°
2026-05-06 15:46 49.73751 0.14223 38980 ft 452 kts 167°
2026-05-06 15:47 49.67691 0.16580 38987 ft 452 kts 167°
2026-05-06 15:47 49.61568 0.19038 38997 ft 452 kts 167°
2026-05-06 15:48 49.55476 0.21495 38996 ft 453 kts 167°
2026-05-06 15:48 49.49371 0.23941 38997 ft 453 kts 167°
2026-05-06 15:49 49.43272 0.26384 38970 ft 453 kts 167°
2026-05-06 15:49 49.37176 0.28822 38971 ft 453 kts 167°
2026-05-06 15:50 49.31077 0.31254 38968 ft 453 kts 167°
2026-05-06 15:50 49.24986 0.33786 38968 ft 453 kts 166°
2026-05-06 15:51 49.18927 0.36365 38961 ft 453 kts 166°
2026-05-06 15:51 49.12844 0.38928 38958 ft 452 kts 166°
2026-05-06 15:52 49.06771 0.41478 38956 ft 452 kts 166°
2026-05-06 15:52 49.00704 0.44030 38952 ft 452 kts 166°
2026-05-06 15:53 48.94649 0.46570 38948 ft 451 kts 166°
2026-05-06 15:53 48.88595 0.49093 38944 ft 451 kts 166°
2026-05-06 15:54 48.82539 0.51603 38945 ft 451 kts 166°
2026-05-06 15:54 48.76491 0.54085 38943 ft 450 kts 167°
2026-05-06 15:55 48.70424 0.56449 38942 ft 450 kts 167°
2026-05-06 15:55 48.64363 0.58803 38942 ft 450 kts 167°
2026-05-06 15:56 48.58315 0.61161 38941 ft 450 kts 167°
2026-05-06 15:56 48.52287 0.63508 38941 ft 450 kts 167°
2026-05-06 15:57 48.46251 0.65935 38940 ft 450 kts 166°
2026-05-06 15:57 48.40215 0.68408 38940 ft 450 kts 166°
2026-05-06 15:58 48.34109 0.70890 38939 ft 450 kts 166°
2026-05-06 15:58 48.28101 0.73319 38938 ft 450 kts 166°
2026-05-06 15:59 48.22001 0.75765 38936 ft 451 kts 166°
2026-05-06 15:59 48.16956 0.77745 38935 ft 451 kts 167°
2026-05-06 16:00 48.10896 0.80117 38938 ft 451 kts 167°
2026-05-06 16:00 48.04805 0.82503 38945 ft 451 kts 167°
2026-05-06 16:01 47.98719 0.84881 38940 ft 452 kts 167°
2026-05-06 16:01 47.92635 0.87252 38938 ft 452 kts 166°
2026-05-06 16:02 47.86552 0.89621 38935 ft 452 kts 167°
2026-05-06 16:02 47.80462 0.91983 38932 ft 452 kts 167°
2026-05-06 16:03 47.74380 0.94337 38926 ft 452 kts 167°
2026-05-06 16:03 47.68293 0.96688 38920 ft 451 kts 167°
2026-05-06 16:04 47.62219 0.99029 38926 ft 451 kts 167°
2026-05-06 16:04 47.56140 1.01366 38925 ft 452 kts 167°
2026-05-06 16:05 47.50057 1.03699 38928 ft 451 kts 167°
2026-05-06 16:05 47.43940 1.05730 38927 ft 450 kts 173°
2026-05-06 16:06 47.37712 1.06390 38921 ft 448 kts 182°
2026-05-06 16:06 47.31506 1.06195 38926 ft 448 kts 182°
2026-05-06 16:07 47.25247 1.06028 38934 ft 448 kts 182°
2026-05-06 16:07 47.19008 1.05881 38935 ft 448 kts 182°
2026-05-06 16:08 47.12771 1.05735 38934 ft 448 kts 182°
2026-05-06 16:08 47.06531 1.05590 38937 ft 449 kts 182°
2026-05-06 16:09 47.00293 1.05432 38939 ft 449 kts 182°
2026-05-06 16:09 46.94016 1.05153 38938 ft 449 kts 183°
2026-05-06 16:10 46.87768 1.04868 38941 ft 449 kts 183°
2026-05-06 16:10 46.81524 1.04598 38943 ft 449 kts 183°
2026-05-06 16:11 46.75287 1.04333 38941 ft 449 kts 183°
2026-05-06 16:11 46.69049 1.04069 38939 ft 448 kts 183°
2026-05-06 16:12 46.62852 1.03806 38936 ft 448 kts 183°
2026-05-06 16:12 46.56581 1.03542 38933 ft 448 kts 183°
2026-05-06 16:13 46.50342 1.03970 38931 ft 449 kts 174°
2026-05-06 16:13 46.44208 1.05759 38928 ft 450 kts 168°
2026-05-06 16:14 46.38150 1.07828 38925 ft 450 kts 168°
2026-05-06 16:14 46.32048 1.09873 38921 ft 450 kts 168°
2026-05-06 16:15 46.25914 1.11915 38913 ft 450 kts 169°
2026-05-06 16:15 46.19864 1.13922 38910 ft 449 kts 169°
2026-05-06 16:16 46.13759 1.15945 38906 ft 449 kts 169°
2026-05-06 16:16 46.07682 1.17953 38905 ft 448 kts 169°
2026-05-06 16:17 46.01598 1.19958 38902 ft 448 kts 169°
2026-05-06 16:17 45.95520 1.21958 38905 ft 448 kts 169°
2026-05-06 16:18 45.89444 1.23952 38904 ft 448 kts 169°
2026-05-06 16:18 45.83513 1.25894 38902 ft 447 kts 169°
2026-05-06 16:19 45.77369 1.27903 38899 ft 447 kts 169°
2026-05-06 16:19 45.71301 1.29881 38900 ft 447 kts 169°
2026-05-06 16:20 45.65227 1.31857 38895 ft 447 kts 169°
2026-05-06 16:20 45.59161 1.33826 38897 ft 448 kts 169°
2026-05-06 16:21 45.53078 1.35796 38886 ft 448 kts 169°
2026-05-06 16:21 45.46997 1.37761 38886 ft 448 kts 169°
2026-05-06 16:22 45.40921 1.39719 38891 ft 448 kts 169°
2026-05-06 16:22 45.34834 1.41678 38892 ft 448 kts 169°
2026-05-06 16:23 45.28753 1.43630 38897 ft 448 kts 169°
2026-05-06 16:23 45.22674 1.45576 38918 ft 448 kts 169°
2026-05-06 16:24 45.16574 1.47528 38916 ft 449 kts 169°
2026-05-06 16:24 45.10491 1.49470 38918 ft 448 kts 170°
2026-05-06 16:25 45.04407 1.51403 38917 ft 448 kts 170°
2026-05-06 16:25 44.98311 1.53336 38916 ft 449 kts 170°
2026-05-06 16:26 44.92240 1.55260 38912 ft 447 kts 170°
2026-05-06 16:26 44.86167 1.57185 38908 ft 447 kts 170°
2026-05-06 16:27 44.80092 1.59101 38911 ft 447 kts 170°
2026-05-06 16:27 44.74029 1.61010 38910 ft 447 kts 170°
2026-05-06 16:28 44.67961 1.62916 38911 ft 447 kts 170°
2026-05-06 16:28 44.61894 1.64815 38911 ft 446 kts 170°
2026-05-06 16:29 44.55834 1.66712 38912 ft 446 kts 171°
2026-05-06 16:29 44.49732 1.68617 38918 ft 446 kts 171°
2026-05-06 16:30 44.44703 1.70183 38919 ft 446 kts 171°
2026-05-06 16:30 44.37629 1.72382 38924 ft 445 kts 171°
2026-05-06 16:31 44.31575 1.74260 38923 ft 445 kts 171°
2026-05-06 16:31 44.25499 1.75802 38926 ft 444 kts 174°
2026-05-06 16:32 44.19399 1.77139 38932 ft 444 kts 174°
2026-05-06 16:32 44.13312 1.78482 38924 ft 442 kts 174°
2026-05-06 16:33 44.07237 1.79820 38927 ft 442 kts 174°
2026-05-06 16:34 43.98127 1.81823 38929 ft 442 kts 175°
2026-05-06 16:34 43.92042 1.82779 38931 ft 439 kts 180°
2026-05-06 16:35 43.85955 1.83349 38934 ft 439 kts 180°
2026-05-06 16:35 43.79865 1.83932 38939 ft 439 kts 180°
2026-05-06 16:36 43.73761 1.84524 38950 ft 440 kts 180°
2026-05-06 16:36 43.67683 1.85112 38949 ft 437 kts 180°
2026-05-06 16:37 43.61603 1.85700 38945 ft 438 kts 180°
2026-05-06 16:37 43.56520 1.86189 38952 ft 437 kts 180°
2026-05-06 16:38 43.50462 1.86771 38954 ft 436 kts 180°
2026-05-06 16:38 43.44405 1.87352 38944 ft 436 kts 180°
2026-05-06 16:39 43.38356 1.87933 38936 ft 435 kts 180°
2026-05-06 16:39 43.32321 1.88510 38932 ft 435 kts 180°
2026-05-06 16:40 43.26281 1.89087 38648 ft 435 kts 180°
2026-05-06 16:40 43.23269 1.89377 38376 ft 433 kts 181°
2026-05-06 16:40 43.20272 1.89664 38107 ft 432 kts 181°
2026-05-06 16:40 43.17225 1.89954 37828 ft 432 kts 181°
2026-05-06 16:41 43.14230 1.90239 37564 ft 432 kts 181°
2026-05-06 16:41 43.11235 1.90524 37300 ft 431 kts 181°
2026-05-06 16:41 43.08246 1.90808 37038 ft 431 kts 181°
2026-05-06 16:41 43.05256 1.91092 36780 ft 430 kts 181°
2026-05-06 16:42 43.02278 1.91375 36532 ft 429 kts 181°
2026-05-06 16:42 42.99263 1.91661 36216 ft 428 kts 181°
2026-05-06 16:42 42.96284 1.91943 35613 ft 430 kts 181°
2026-05-06 16:42 42.93296 1.92224 34873 ft 433 kts 181°
2026-05-06 16:43 42.90284 1.92509 34194 ft 432 kts 181°
2026-05-06 16:43 42.87282 1.92794 33450 ft 432 kts 181°
2026-05-06 16:43 42.84296 1.93077 32748 ft 429 kts 181°
2026-05-06 16:43 42.81323 1.93358 32008 ft 427 kts 181°
2026-05-06 16:44 42.78359 1.93637 31231 ft 427 kts 181°
2026-05-06 16:44 42.75398 1.93916 30513 ft 426 kts 181°
2026-05-06 16:44 42.72463 1.94194 29995 ft 419 kts 181°
2026-05-06 16:44 42.69569 1.94467 29387 ft 413 kts 181°
2026-05-06 16:45 42.66727 1.94791 28830 ft 409 kts 178°
2026-05-06 16:45 42.63928 1.95355 28285 ft 403 kts 177°
2026-05-06 16:45 42.61185 1.95915 27752 ft 397 kts 177°
2026-05-06 16:45 42.58459 1.96466 27208 ft 393 kts 176°
2026-05-06 16:46 42.55778 1.97006 26685 ft 388 kts 176°
2026-05-06 16:46 42.53119 1.97541 26156 ft 384 kts 176°
2026-05-06 16:46 42.50488 1.98070 25626 ft 381 kts 176°
2026-05-06 16:46 42.47877 1.98595 25109 ft 378 kts 176°
2026-05-06 16:47 42.45294 1.99113 24586 ft 374 kts 176°
2026-05-06 16:47 42.42725 1.99628 24064 ft 372 kts 176°
2026-05-06 16:47 42.40174 2.00139 23605 ft 368 kts 175°
2026-05-06 16:47 42.37628 2.00932 23326 ft 382 kts 167°
2026-05-06 16:48 42.35177 2.02269 23043 ft 379 kts 158°
2026-05-06 16:48 42.32916 2.04085 22766 ft 377 kts 152°
2026-05-06 16:48 42.30724 2.06022 22265 ft 376 kts 152°
2026-05-06 16:48 42.28537 2.07939 21716 ft 372 kts 152°
2026-05-06 16:49 42.26377 2.09823 21202 ft 369 kts 152°
2026-05-06 16:49 42.24225 2.11693 20674 ft 367 kts 152°
2026-05-06 16:49 42.22084 2.13550 20154 ft 364 kts 152°
2026-05-06 16:49 42.19966 2.15387 19632 ft 361 kts 152°
2026-05-06 16:50 42.17856 2.17218 19112 ft 359 kts 152°
2026-05-06 16:50 42.15756 2.19037 18584 ft 358 kts 152°
2026-05-06 16:50 42.13666 2.20845 18054 ft 356 kts 152°
2026-05-06 16:50 42.11591 2.22640 17505 ft 352 kts 152°
2026-05-06 16:51 42.09593 2.24372 17022 ft 341 kts 151°
2026-05-06 16:51 42.07618 2.26083 16540 ft 332 kts 151°
2026-05-06 16:51 42.05702 2.27739 16048 ft 323 kts 152°
2026-05-06 16:51 42.03780 2.29323 15681 ft 329 kts 159°
2026-05-06 16:52 42.01594 2.30155 15555 ft 332 kts 172°
2026-05-06 16:52 41.99338 2.31288 15315 ft 361 kts 153°
2026-05-06 16:52 41.97342 2.33375 15072 ft 364 kts 141°
2026-05-06 16:52 41.95485 2.35653 14829 ft 360 kts 142°
2026-05-06 16:53 41.93487 2.37702 14392 ft 356 kts 149°
2026-05-06 16:53 41.91412 2.39583 13569 ft 363 kts 149°
2026-05-06 16:53 41.89284 2.41480 12695 ft 369 kts 149°
2026-05-06 16:53 41.87163 2.43367 12342 ft 360 kts 149°
2026-05-06 16:54 41.85142 2.45173 12181 ft 346 kts 149°
2026-05-06 16:54 41.83186 2.46934 12044 ft 333 kts 149°
2026-05-06 16:54 41.81295 2.48606 11905 ft 318 kts 153°
2026-05-06 16:54 41.79295 2.49671 11124 ft 309 kts 173°
2026-05-06 16:55 41.77126 2.49656 9902 ft 319 kts 195°
2026-05-06 16:55 41.74993 2.48765 8926 ft 321 kts 201°
2026-05-06 16:55 41.72917 2.47802 8420 ft 310 kts 201°
2026-05-06 16:55 41.70929 2.46884 8123 ft 293 kts 201°
2026-05-06 16:56 41.69064 2.46041 7973 ft 274 kts 201°
2026-05-06 16:56 41.67298 2.45255 7921 ft 269 kts 201°
2026-05-06 16:56 41.65495 2.44454 7911 ft 272 kts 200°
2026-05-06 16:56 41.63707 2.43668 7906 ft 269 kts 200°
2026-05-06 16:57 41.61913 2.42883 7916 ft 269 kts 200°
2026-05-06 16:57 41.60151 2.42109 7914 ft 270 kts 201°
2026-05-06 16:57 41.58365 2.41321 7899 ft 269 kts 201°
2026-05-06 16:57 41.56593 2.40539 7687 ft 269 kts 200°
2026-05-06 16:58 41.54817 2.39758 7214 ft 273 kts 200°
2026-05-06 16:58 41.53000 2.38965 6844 ft 271 kts 200°
2026-05-06 16:58 41.51204 2.38184 6331 ft 270 kts 200°
2026-05-06 16:58 41.49427 2.37412 5726 ft 269 kts 200°
2026-05-06 16:59 41.47679 2.36654 5421 ft 257 kts 200°
2026-05-06 16:59 41.46032 2.35943 5192 ft 244 kts 200°
2026-05-06 16:59 41.44412 2.35240 4811 ft 241 kts 200°
2026-05-06 16:59 41.42825 2.34550 4507 ft 240 kts 200°
2026-05-06 17:00 41.41260 2.33869 4203 ft 238 kts 200°
2026-05-06 17:00 41.39671 2.33146 3875 ft 237 kts 206°
2026-05-06 17:00 41.38381 2.31923 3596 ft 229 kts 229°
2026-05-06 17:00 41.37475 2.30243 3288 ft 219 kts 241°
2026-05-06 17:01 41.36796 2.28479 3004 ft 209 kts 245°
2026-05-06 17:01 41.36188 2.26738 2733 ft 201 kts 246°
2026-05-06 17:01 41.35620 2.25093 2526 ft 189 kts 246°
2026-05-06 17:01 41.35087 2.23543 2260 ft 178 kts 245°
2026-05-06 17:02 41.34592 2.22101 2015 ft 164 kts 246°
2026-05-06 17:02 41.34140 2.20784 1791 ft 148 kts 245°
2026-05-06 17:02 41.33738 2.19614 1617 ft 130 kts 246°
2026-05-06 17:02 41.33377 2.18560 1435 ft 123 kts 246°
2026-05-06 17:03 41.33014 2.17503 1276 ft 130 kts 245°
2026-05-06 17:03 41.32634 2.16394 1082 ft 132 kts 244°
2026-05-06 17:03 41.32252 2.15284 882 ft 130 kts 244°
2026-05-06 17:03 41.31882 2.14188 762 ft 131 kts 244°
2026-05-06 17:04 41.31516 2.13085 543 ft 129 kts 244°
2026-05-06 17:04 41.31138 2.11986 340 ft 132 kts 242°
2026-05-06 17:04 41.30754 2.10884 174 ft 130 kts 243°
2026-05-06 17:04 41.30373 2.09779 29 ft 125 kts 242°
2026-05-06 17:05 41.30080 2.08943 20 ft 59 kts 245°
2026-05-06 17:05 41.29970 2.08615 24 ft 23 kts 247°
2026-05-06 17:05 41.29929 2.08442 25 ft 19 kts 257°
2026-05-06 17:05 41.29927 2.08259 20 ft 22 kts 276°
2026-05-06 17:06 41.29936 2.08144 18 ft 0 kts 276°
2026-05-06 17:06 41.29937 2.08128 18 ft 0 kts 276°
2026-05-06 17:06 41.29938 2.08116 18 ft 4 kts 276°
2026-05-06 17:06 41.29947 2.08064 18 ft 7 kts 297°
2026-05-06 17:07 41.30002 2.08015 18 ft 12 kts 334°
2026-05-06 17:07 41.30072 2.07969 18 ft 10 kts 334°
2026-05-06 17:07 41.30120 2.07923 18 ft 8 kts 309°
2026-05-06 17:07 41.30173 2.07892 20 ft 8 kts 16°
2026-05-06 17:08 41.30210 2.07910 21 ft 7 kts 20°
2026-05-06 17:08 41.30231 2.07923 23 ft 2 kts 25°
2026-05-06 17:08 41.30233 2.07924 22 ft 0 kts 25°